www.pogodaiklimat.ru

Погода и климат >> Архив погоды >> Россия >> Магаданская область >> Талая


ПОГОДА в Талой

  • Прогноз погоды в Талой
  • Монитор погоды в Талой

АРХИВ ПОГОДЫ в Талой

Время (UTC), дата Ветер
(напр.,м/с)
 
Видим.   Явления Облачность Т
(С)
Тd
(С)
f
(%)
Тe
(С)
Тes
(С)
Комфортность P
(гПа)
Po
(гПа)
Тmin
(С)
Tmax
(С)
R
(мм)
R24
(мм)
S
(см)
03 13.08 С 2 20 км слаб. ливневой дождь 9/4 1000 м
[Cb cap Ac trans]
+15.5 +9.6 68 +15 +18 1007.2 927.2
06 13.08 СВ 2 20 км дым {ливн. осадки} 8/6 1000 м
[Cb cap Ac trans Ci fib]
+18.2 +6.0 45 +19 +20 1005.8 926.5
09 13.08 штиль 0 20 км дым 9/8 1000 м
[Cb cap Ac trans Ci fib]
+14.7 +9.2 70 +14 +14 1007.5 927.2 +19.1 0.0
12 13.08 ЮВ 1 50 км 6/3 1000 м
[Sc Ac trans]
+7.9 +6.7 92 +7 +7 1011.0 928.5
15 13.08 штиль 0 50 км 3/0
[Ac trans]
+4.0 +3.3 95 +3 +3 1013.3 929.5
18 13.08 ЮВ 1 50 км 3/0
[Ac lent]
+0.9 +0.6 98 -1 -1 1016.0 931.1
21 13.08 штиль 0 50 км 8/6 1000 м
[Sc Ac trans Ci fib]
+7.4 +3.9 78 +7 +8 1015.5 932.5 -0.3
00 14.08 СВ 2 50 км 8/8 1000 м
[Cb cap]
+11.0 +3.3 59 +10 +12 1015.0 933.1
03 14.08 С 3 20 км дым 8/8 1000 м
[Cb cap]
+13.6 +4.1 53 +13 +14 1014.6 933.4
06 14.08 СВ 3 20 км дым 4/4 1000 м
[Sc]
+13.6 +2.9 48 +13 +15 1015.4 934.1
09 14.08 СВ 2 20 км дым 9/9 1000 м
[Sc]
+12.8 +4.4 57 +12 +12 1016.5 934.9 +15.6
12 14.08 штиль 0 50 км 9/9 1000 м
[Cb cap]
+9.5 +7.1 85 +9 +9 1018.7 936.1
15 14.08 штиль 0 50 км 9/9 1000 м
[Cb cap]
+8.0 +6.2 88 +7 +7 1019.7 936.6
18 14.08 штиль 0 50 км 8/8 1000 м
[Sc]
+6.8 +5.4 91 +6 +6 1021.0 937.4
21 14.08 штиль 0 20 км дым 9/8 1000 м
[Sc Ci fib]
+8.9 +5.8 81 +8 +9 1021.1 938.1 +6.3
00 15.08 С 2 20 км дым 6/1 1000 м
[Cu hum Ci fib]
+14.9 +5.3 53 +15 +21 1019.0 937.8
03 15.08 С 1 20 км дым 6/1 1000 м
[Cu hum Ci fib]
+18.0 +5.1 43 +19 +28 1017.5 937.3
06 15.08 С 1 20 км дым 4/0
[Ci fib]
+19.4 +4.1 36 +21 +25 комфорт 1016.8 936.9
09 15.08 СВ 1 20 км дым 3/0
[Ci fib]
+15.8 +4.1 46 +17 +17 1018.7 937.7 +19.7
12 15.08 Ю 1 10 км дым ясно +6.7 +4.8 88 +6 +6 1023.0 939.1
15 15.08 Ю 1 10 км дым ясно +1.1 +0.5 96 -1 -1 1025.9 940.1
18 15.08 ЮВ 1 20 км дым ясно +0.2 -0.1 98 -2 -2 1027.1 941.0
21 15.08 штиль 0 20 км дым ясно +5.9 +3.9 87 +5 +8 1026.0 941.7 -1.0
00 16.08 С 1 20 км дым 1/0
[Ci fib]
+16.2 +7.7 57 +17 +27 1022.2 941.2
03 16.08 С 2 20 км дым 4/1 1000 м
[Cu hum Ci fib]
+20.4 +4.3 35 +22 +29 комфорт 1020.0 940.1
06 16.08 С 2 20 км дым 1/0
[Ci fib]
+20.3 +3.5 33 +21 +25 комфорт 1019.0 939.2
09 16.08 СВ 1 20 км дым 3/0
[Ci fib]
+17.3 +1.6 35 +18 +18 1020.1 939.4 +20.6
12 16.08 Ю 1 20 км дым ясно +5.0 +3.5 90 +4 +4 1024.4 940.0
15 16.08 штиль 0 20 км дым ясно +3.1 +1.8 91 +2 +2 1025.3 940.2
18 16.08 Ю 1 50 км туман поземный ясно +0.2 -0.2 97 -2 -2 1026.8 940.7
21 16.08 штиль 0 20 км дым ясно +6.3 +4.0 85 +5 +9 1024.8 940.7 -1.2
00 17.08 СВ 2 50 км 10/0
[Cs]
+16.9 +5.0 45 +17 +24 1021.0 940.1
03 17.08 СВ 3 20 км дым 10/0
[Cs]
+19.2 +0.3 28 +20 +26 1019.6 939.4
06 17.08 С 2
{10}
20 км дым 4/0
[Ci fib]
+20.8 -0.9 23 +21 +25 комфорт 1018.5 938.8
09 17.08 С 3 20 км дым ясно +16.7 -0.7 31 +17 +17 1020.3 939.4 +20.9
12 17.08 штиль 0 10 км дым 3/0
[Ci fib]
+6.6 +2.3 74 +6 +6 1025.2 941.1
15 17.08 ЮВ 1 10 км дым ясно +1.1 +0.2 94 -1 -1 1027.4 941.5
18 17.08 Ю 1 20 км дым ясно -2.0 -2.9 94 -4 -4 1027.4 942.1
21 17.08 штиль 0 50 км 3/0
[Ac trans]
+5.4 +1.6 76 +5 +7 1027.3 942.7 -2.0
00 18.08 З 1 50 км 4/0
[Ac trans Ci fib]
+16.4 +5.5 48 +17 +25 1022.8 941.7
03 18.08 ЮВ 1 50 км 3/0
[Ac trans]
+17.5 +5.3 45 +19 +27 1021.6 940.9
06 18.08 СВ 1 50 км 1/0
[Ac trans]
+19.9 +4.5 36 +22 +26 комфорт 1020.2 940.2
09 18.08 СВ 1 50 км ясно +17.1 +5.9 48 +18 +18 1021.2 940.5 +20.2
12 18.08 ЮВ 1 50 км ясно +7.0 +5.1 88 +6 +6 1025.3 941.4
15 18.08 штиль 0 50 км ясно +1.8 +0.8 93 +1 +1 1027.8 942.1
18 18.08 ЮЗ 1 50 км ясно +2.0 +1.7 98 0 0 1029.0 943.3
21 18.08 ЮВ 1 50 км ясно +8.0 +5.1 82 +7 +10 1027.3 943.5 -0.3
00 19.08 СЗ 1 50 км 3/0
[Ac trans Ci fib]
+20.2 +6.5 41 +22 +30 комфорт 1023.0 942.9
03 19.08 З 2 20 км дым 4/0
[Ac trans]
+23.5 +6.3 33 +24 +30 комфорт 1020.7 941.6
06 19.08 З 1 20 км дым 8/0
[Ac trans Ci fib]
+24.7 +5.4 29 +24 +26 комфорт 1019.4 940.7
09 19.08 штиль 0 50 км 6/3 1000 м
[Cb cap Ac trans Ci fib]
+16.4 +8.5 60 +16 +16 1021.8 940.8 +25.4
12 19.08 ЮВ 1 50 км 8/3 1000 м
[Sc Ac trans]
+8.1 +5.9 86 +7 +7 1024.9 941.4
15 19.08 Ю 1 50 км 6/0
[Ac trans]
+5.2 +4.4 95 +4 +4 1026.2 941.7
18 19.08 ЮВ 1 50 км 1/0
[Ac trans]
+6.1 +5.2 94 +5 +5 1026.4 942.2
21 19.08 штиль 0 50 км ясно +11.2 +7.0 75 +11 +14 1024.5 941.9 +5.0

 

Местоположение метеостанции Талая (Магаданская область, Россия): широта 61.13 долгота 152.30 высота над уровнем моря 708 м.

В архиве по умолчанию представлена погода в Талой за последнюю неделю. Архивные данные за месяц целиком и за предыдущие месяцы, начиная с января 2011 года, Вы можете получить, выбрав интересующий диапазон дат из раскрывающегося списка и нажав кнопку "Ввод!".


*Определитесь, кто Вы:
робот инопланетянин человек

Внимание! Время в таблицах - всемирное. Для получения местного времени необходимо прибавить поправку, которая равна 11 ч.

Смотрите также архив погоды в соседних городах и на ближайших метеорологических станциях:

Погода в Мадауне (Магаданская область, Россия) (105 км)
Погода в Палатке (Магаданская область, Россия) (138 км)
Погода в Усть-Бохапче (Магаданская область, Россия) (140 км)
Погода в Усть-Омчуге (Магаданская область, Россия) (145 км)
Погода в Среднекане (Магаданская область, Россия) (147 км)
Погода на Озере Джека Лондона (Магаданская область, Россия) (182 км)
Погода в Оле (Магаданская область, Россия) (185 км)
Погода на Шелихова (Магаданская область, Россия) (195 км)
Погода в Брохово (Магаданская область, Россия) (195 км)
Погода в Магадане (Магаданская область, Россия) (197 км)

Пояснения к столбцам:

Ветер - указаны скорость ветра в м/с - средняя за 10 мин, порывы в срок и между сроками (в фигурных скобках) и направление, откуда дует ветер: С - северный, СВ - северо-восточный, В - восточный, ЮВ - юго-восточный, Ю - южный, ЮЗ - юго-западный, З - западный, СЗ - северо-западный.
Видимость - горизонтальная дальность видимости в метрах или километрах. При видимости от 1 до 10 км при отсутствии осадков обычно наблюдается дымка, при ухудшении видимости до 1 км и менее - туман. В сухую погоду видимость может ухудшаться дымом, пылью или мглою.
Явления - указаны атмосферные явления, наблюдавшиеся в срок или в последний час перед сроком; фигурными скобками обозначены явления, наблюдавшиеся между сроками (за 1-3 часа до срока); квадратными скобками обозначены град или гололедные отложения с указанием их диаметра в мм.
Облачность - указаны через наклонную черту общая и нижняя облачность в баллах и высота нижней границы облаков в метрах; квадратными скобками обозначены формы облаков: Ci - перистые, Cs - перисто-слоистые, Cc - перисто-кучевые, Ac - высококучевые, As - высокослоистые, Sc - слоисто-кучевые, Ns - слоисто-дождевые, Cu - кучевые, Cb - кучево-дождевые. Подробнее классификацию облаков см. в Атласе облаков (PDF).
T - Температура воздуха - температура, измеренная на высоте 2 м над землей.
Td - Температура точки росы - температура, при понижении до которой содержащийся в воздухе водяной пар достигнет насыщения.
f - Относительная влажность воздуха - влажноcть воздуха, измеренная на высоте 2 м над землей.
Te - Эффективная температура - температура, которую ощущает одетый по сезону человек в тени. Характеристика душности погоды. При расчете учитывается влияние влажности воздуха и скорости ветра на теплоощущения человека.
Tes - Эффективная температура на солнце - температура, которую ощущает человек, с поправкой на солнечный нагрев. Характеристика знойности погоды. Зависит от высоты солнца над горизонтом, облачности и скорости ветра. Ночью, в пасмурную погоду, а также при ветре 12 м/с и более поправка равна нулю.
P - Атмосферное давление - приведенное к уровню моря атмосферное давление.
Po - Атмосферное давление - измеренное на уровне метеостанции атмосферное давление.
Tmin - Минимальная температура - минимум температуры воздуха на высоте 2 м над землей.
Tmax - Максимальная температура - максимум температуры воздуха на высоте 2 м над землей.
R - Количество осадков - Количество выпавших осадков за период времени, мм. При наведении курсора мыши на число - период времени, за который выпало указанное количество осадков.
R24 - Количество осадков - Количество выпавших осадков за 24 часа, мм.
S - Снежный покров - Высота снежного покрова, см. При наведении курсора мыши на число - состояние снежного покрова и степень покрытия местности в баллах.